sat.trackr.live / text

‹ back to catalog

STARLINK-35742

NORAD 66276 · 2025-247M

PAYLOAD ACTIVE UNKNOWN

§ Identity

Operator
Country
US
Launch date
2025-10-31
Launch site
AFWTR
Launch vehicle
Mass (kg)
RCS (m²)

Purposes: comms

External: N2YO · Heavens-Above · Gunter

§ Orbital elements

Epoch: 2026-05-25T04:09:15.079680Z

Period
94.10 min
Inclination
53.1590°
Eccentricity
0.0001385
Mean motion
15.30205801 rev/d
Perigee alt
474.2 km
Apogee alt
476.1 km
Semi-major
6,853.3 km
B*
4.0449e-4
RAAN
196.1841°
Arg perigee
85.6868°
Mean anomaly
274.4291°
Rev number
3,279

§ Raw data

STARLINK-357421 66276U 25247M   26145.17309120  .00011642  00000+0  40449-3 0  99952 66276  53.1590 196.1841 0001385  85.6868 274.4291 15.30205801 32795

JSON: /api/v1/satellites/66276 · /tle

For live sub-satellite position, see the globe view (requires WebGL).

§ Visibility from observer

Set your observer location to see the next 7 days of passes ≥ 10°. The values pass through the URL so the page stays shareable.

No JS? Fill the form by hand. The geolocation button needs JavaScript.